Portada
METAR-TAF:

METAR-TAF

Aeroports :

Pattaya-Rayong, Tailàndia

latitud: 12-38N, longitud: 101-21E, altitud: 3 m

Observació

L'informe es va fer fa 37 minuts, a les 03:30 UTC
Vent 8 kt del Est/Nord-Est
Temperatura 31°C
Humitat 52%
Pressió 1014 hPa
Visibilitat: 9000 m
Escasses núvols a una alçada de 2500 ft

METAR: VTBU 210330Z 07008KT 9000 FEW025 31/20 Q1014 NOSIG

Hora: 11:07 (04:07 UTC)

Pronòstic

L'informe es va fer fa 5 hores i 7 minuts, a les 23:00 UTC
Pronòstic vàlid del 21 a les 00 UTC al 21 a les 24 UTC
Vent 4 kt del Nord
Visibilitat: 7000 m
Escasses núvols a una alçada de 2000 ft
Evolucionant progressivament
l' 21 a les 03 UTC al 21 a les 05 UTC
Vent 8 kt del Sud
Visibilitat: 8000 m
Evolucionant progressivament
l' 21 a les 10 UTC al 21 a les 12 UTC
Vent 4 kt del Nord
Visibilitat: 5000 m
boirina

TAF: VTBU 202300Z 2100/2124 36004KT 7000 FEW020 BECMG 2103/2105 18008KT 8000 BECMG 2110/2112 01004KT 5000 BR

Observacions i pronòstics meteorològics de més de 4000 aeroports (METAR i TAF).

Les estacions disponibles són els punts grocs i vermells al mapa.

Posi el ratolí al punt desitjat per veure el nom de l'estació.

Feu clic per veure les observacions i els pronòstics meteorològics.

Per canviar el mapa: feu clic els botons verds amb una creu de color negre per apropar; al botó verd amb un guió per allunyar la imatge; o en les fletxes verdes per a mapes adjacents.


METAR-TAF: